CAPE
0 0 0 0 0 0 0 0 0 0 0 0 0 101 66 98 95 54 140 463 713 798 730 1197 1353 1421 1450 1650 1991 2940 3228 3330 3128 3097 3103 3168 3129 3134 2454 2867 2707 2476 2144 1789
0 0 0 0 0 0 0 0 0 0 0 0 0 0 303 173 54 7 424 887 672 995 768 826 1144 1366 1498 1632 1934 2288 2962 3132 3003 3029 3072 3182 3248 3221 3255 2657 2817 2619 2315 2019
0 0 0 0 0 0 0 0 0 0 0 0 0 0 41 82 164 24 20 601 715 854 1507 848 957 1153 1368 1587 1705 2100 2571 2952 2977 2845 3077 3052 3193 3121 3201 3235 3065 2971 2762 2432
0 0 0 0 0 0 0 0 0 0 0 0 0 0 7 0 73 14 3 27 351 700 1085 1924 1121 1110 1296 1446 1743 1941 2109 2709 2839 2991 2889 3184 3157 3172 3257 3273 3288 3217 3116 2750
0 0 0 0 0 0 3 0 36 286 158 2 0 0 0 0 0 0 0 15 0 361 1030 1480 1818 1333 1181 1301 1565 1736 1809 2075 2624 2769 3143 3305 3329 3291 3339 3331 3303 3369 2876 2770
0 0 0 0 52 239 148 206 730 560 487 372 264 82 24 433 984 73 6 0 0 47 39 1577 1927 2005 1683 1378 1322 1390 1500 1895 2407 2598 3052 3551 3455 3431 3375 3245 2592 2402 2883 2734
27 0 0 78 257 208 162 468 489 398 439 545 460 479 466 476 1084 1221 936 526 69 247 626 1659 2020 2156 2021 1755 1522 1637 1402 2782 3153 3625 3789 3677 3524 3440 3012 2753 2597 2464 2576 1741
86 91 53 436 353 413 658 961 1193 1184 1408 654 497 392 518 841 1022 1226 991 882 3042 1358 1945 2357 2445 2479 2347 1895 1867 3109 3429 4164 4248 4276 4036 3763 3480 2977 2898 2609 2430 1990 1873 1634
13 127 366 441 614 483 543 951 1004 1136 1559 1289 1379 1654 1824 1422 1362 1585 2108 3051 3236 3632 3892 3769 3031 3015 3591 3909 3786 3816 4293 4288 4208 4146 4227 4085 2857 2419 2379 1668 1640 1524 1462 1604
127 0 186 146 181 859 670 331 554 1003 1144 1200 1269 1463 1607 1873 2298 2404 2607 3031 3069 3159 3418 3652 3671 3754 3866 3866 3873 4021 4008 4125 4076 3977 3611 3130 2520 1632 1527 1337 1192 1097 1029 771
142 561 680 609 501 518 398 236 514 836 1105 1285 1402 1288 1354 1494 1706 2111 2543 2916 3028 3172 3612 3576 3493 3542 3550 3645 3733 3830 3798 3485 3365 3276 3156 2630 1462 1392 1296 1226 1269 1127 1262 1012
151 308 371 380 162 172 205 201 389 654 885 1072 1059 998 913 937 878 1133 1088 1551 3086 3361 3368 3475 3654 3602 3438 3338 3334 3265 2678 2807 2841 2721 1876 1726 1483 1365 1177 1009 939 976 892 680
85 260 330 25 32 68 76 25 0 46 250 354 314 362 373 328 270 259 298 222 1101 2166 2695 2974 3248 3119 2823 2778 2820 2809 2685 2400 1875 1863 1898 1726 1503 1256 919 885 784 849 707 575
70 35 83 69 13 24 26 14 0 0 0 0 42 32 87 50 74 3 0 18 730 2115 2164 2213 2632 2988 2705 2629 2641 2503 2238 1894 1816 1738 1791 1751 1507 1154 948 780 800 706 369 266
41 36 12 0 43 29 16 0 0 0 0 0 0 0 0 3 0 2 20 182 915 1953 2648 2728 2617 2654 2592 2375 2331 2310 2237 1980 1837 1710 1511 1451 1283 901 772 718 620 231 8 0
0 14 7 0 0 0 0 17 0 0 0 0 0 0 3 0 0 0 50 256 709 664 1112 2215 2716 2598 2646 2539 2535 2230 2122 1934 1861 1841 1556 1403 1148 1059 812 599 316 127 44 2
1 6 30 23 37 41 41 25 7 1 1 0 0 0 0 0 3 55 49 223 471 545 866 946 1072 1233 1337 1336 1156 1264 1149 1116 894 1281 1156 1109 987 889 728 587 180 89 40 0
16 18 18 30 25 35 29 12 15 12 8 1 0 0 4 0 0 0 50 47 110 396 568 525 751 706 711 387 406 663 793 640 418 472 580 449 368 213 62 116 128 102 33 22
25 37 18 42 9 7 9 5 0 3 18 6 0 0 17 28 2 14 2 3 18 11 63 326 696 722 572 371 344 266 405 311 205 142 88 77 61 79 51 87 80 70 43 67
0 0 0 0 24 36 19 40 25 59 64 22 16 14 26 64 113 109 131 100 95 119 110 223 439 535 461 176 114 109 86 61 77 89 62 65 50 52 63 25 25 13 16 24
14 1 34 62 66 53 70 55 66 22 58 112 61 77 102 105 83 69 51 82 73 74 117 137 155 228 205 176 133 76 67 43 43 70 66 67 41 42 44 27 14 48 51 45
70 63 99 75 78 38 21 54 72 86 33 36 96 70 94 105 95 42 18 4 15 61 69 106 143 106 93 148 141 76 55 57 44 37 57 30 17 27 10 4 1 21 69 50
62 116 119 38 129 89 65 62 27 99 116 120 22 14 32 83 83 45 0 0 4 0 41 19 51 46 65 67 55 55 32 37 6 13 10 10 15 12 7 5 3 9 18 8
13 30 19 46 10 7 30 29 29 43 32 38 6 5 6 25 58 51 35 2 0 0 0 2 47 15 51 26 17 0 63 39 8 10 14 6 0 0 1 0 1 2 7 13
4 12 10 9 10 0 0 2 4 8 5 3 14 23 8 16 15 42 46 7 9 3 34 11 1 0 0 2 41 27 12 14 6 10 6 4 2 1 0 0 0 0 0 0
1 0 0 0 0 0 0 0 0 0 0 0 0 1 0 1 4 2 11 8 28 20 58 43 7 13 20 2 2 0 0 17 27 27 9 11 21 19 17 9 0 0 1 0
0 0 0 0 0 0 0 0 0 0 0 0 0 0 0 0 0 11 10 12 20 32 13 0 7 5 29 21 37 30 24 20 26 5 18 20 13 20 21 2 1 3 2 6
CIN
0 0 0 0 0 0 0 0 0 0 0 0 0 -111 -83 -52 -91 -133 -112 -172 -44 -53 -105 -164 -196 -249 -298 -289 -269 -238 -199 -162 -166 -176 -148 -114 -94 -97 -134 -52 -55 -58 -49 -67
0 0 0 0 0 0 0 0 0 0 0 0 0 0 -93 -84 -9 -22 -65 -126 -110 -71 -53 -117 -164 -187 -265 -306 -280 -239 -251 -234 -204 -176 -156 -124 -98 -106 -85 -104 -61 -45 -60 -59
0 0 0 0 0 0 0 0 0 0 0 0 0 0 -116 -122 -84 -5 -89 -54 -68 -92 -227 -52 -213 -225 -273 -289 -289 -258 -250 -261 -232 -210 -175 -159 -112 -100 -81 -55 -39 -20 -18 -22
0 0 0 0 0 0 0 0 0 0 0 0 0 0 -82 0 -10 -28 -65 -82 -158 -154 -142 -164 -202 -209 -269 -289 -302 -298 -282 -273 -242 -224 -205 -151 -121 -94 -78 -37 -23 -8 -2 -3
0 0 0 0 0 0 -2 0 -47 -98 -111 -109 0 0 0 0 0 0 0 -139 0 -108 -125 -197 -69 -210 -206 -228 -267 -278 -285 -311 -311 -271 -205 -163 -102 -83 -63 -9 -2 0 0 0
0 0 0 0 -47 -29 -57 -42 -135 -146 -141 -136 -172 -218 -19 -254 -129 -272 -18 0 0 -230 -181 -211 -117 -52 -38 -28 -287 -294 -258 -390 -344 -274 -224 -135 -69 -62 -48 -40 -44 -45 0 -5
-22 0 0 -80 -154 -45 -15 -98 -157 -161 -145 -141 -135 -147 -198 -218 -147 -147 -165 -112 -28 -141 -127 -216 -202 -70 -41 -40 -44 -356 -312 -275 -255 -176 -119 -101 -48 -64 -58 -53 -75 -49 -21 -82
-26 -22 -5 -154 -76 -57 -168 -86 -130 -175 -167 -135 -173 -203 -160 -110 -104 -150 -130 -108 -115 -343 -269 -356 -203 -149 -235 -49 -268 -284 -182 -134 -94 -67 -66 -46 -55 -109 -87 -98 -99 -143 -118 -71
-7 -15 -99 -101 -48 -188 -196 -155 -190 -207 -196 -161 -199 -174 -190 -114 -89 -94 -126 -88 -86 -145 -205 -306 -317 -288 -292 -285 -249 -152 -95 -73 -54 -41 -21 -7 -25 -84 -98 -188 -105 -152 -138 -31
-7 -1 -22 -62 -56 -158 -111 -349 -125 -173 -147 -196 -203 -148 -127 -137 -117 -99 -66 -80 -153 -215 -166 -144 -223 -249 -246 -182 -170 -126 -88 -38 -7 -11 -16 -25 -49 -103 -194 -199 -158 -162 -118 -114
-63 -54 -21 -38 0 -6 -101 -175 -68 -97 -105 -109 -73 -70 -74 -61 -83 -82 -81 -125 -166 -190 -202 -181 -179 -182 -138 -115 -129 -74 -51 -45 -36 -28 -18 -50 -204 -202 -205 -187 -109 -101 -51 -36
-26 -43 -30 0 -6 -32 -24 -53 -80 -59 -60 -43 -33 -24 -54 -30 -85 -94 -87 -9 -78 -83 -107 -101 -72 -72 -71 -54 -36 -46 -59 -44 -41 -48 -145 -166 -191 -186 -171 -127 -104 -48 -41 -59
-44 -3 -2 -10 -1 -7 -8 -43 -1 -100 -73 -50 -87 -57 -50 -34 -147 -118 -150 -18 -9 -41 -44 -60 -35 -42 -62 -48 -50 -70 -78 -96 -143 -142 -125 -166 -161 -162 -138 -126 -78 -39 -36 -40
-47 -27 -16 0 -9 -7 -7 -9 0 0 0 0 -96 -142 -63 -174 -126 -197 0 -3 -10 -25 -33 -39 -42 -22 -52 -59 -66 -75 -127 -158 -145 -141 -104 -86 -81 -66 -104 -65 -43 -37 -50 -45
-23 -14 -2 0 0 -6 -5 -1 0 0 0 0 0 0 0 -114 0 -63 -299 -9 -8 -4 -6 -7 -8 -12 -34 -75 -78 -66 -50 -74 -79 -67 -61 -37 -23 -54 -49 -30 -29 -33 -33 0
0 -7 -8 0 0 0 0 -48 0 0 0 0 0 0 -20 0 0 -6 -42 -36 -8 -52 -14 -4 -6 -10 -9 -11 -7 -18 -16 -4 -18 -25 -30 -18 -50 -48 -37 -19 -19 -65 -34 -2
-1 0 0 -7 -1 0 0 -3 -82 0 0 0 0 0 0 0 -30 -85 -112 -61 0 0 -22 -30 -20 -24 -29 -19 -25 -21 -33 -33 -21 -15 -19 -22 -36 -17 -16 -19 -14 -17 -18 0
0 -1 -4 -2 -5 -1 -1 0 0 0 -3 -2 0 0 -66 0 0 0 -93 -75 -57 -31 -46 -36 -23 -25 -25 -19 -31 -8 -14 -15 -11 -7 -16 -10 -13 -10 -1 -24 -27 -24 -21 -26
0 0 0 -7 -4 -1 -9 -1 0 -3 0 -2 0 0 -80 -54 -1 -48 -63 -85 -103 -33 -78 -42 -34 -44 -43 -36 -15 -8 -6 -11 -18 -23 -15 -7 -10 -10 -2 -50 -39 -37 -37 -20
0 0 0 0 -15 -19 -15 -12 -10 -11 -22 -15 -30 -34 -25 -17 -26 -29 -22 -13 -14 -25 -17 -18 -27 -25 -22 -26 -18 -17 -24 -17 -13 -14 -7 -9 -16 -10 -2 -1 -2 -29 -33 -38
0 -1 -67 -15 -25 -27 -25 -30 -30 -25 -26 -38 -45 -34 -7 -26 -32 -43 -55 -10 -12 -27 -20 -21 -14 -9 -27 -6 -4 -21 -41 -29 -11 -13 -34 -23 -19 -10 -14 -10 -32 -10 -36 -28
-32 -4 -10 -12 -42 -27 -31 -36 -15 -52 0 -32 -41 -43 -36 -36 -38 -47 -60 -30 -16 -13 -29 -16 -10 -13 -8 -3 -5 -5 -12 -20 -20 -19 -15 -2 -2 -1 -2 -17 -5 -22 -29 -26
-9 -48 -37 -32 -21 -28 -32 -30 -18 -38 -21 -26 -58 -51 -43 -24 -27 -32 -5 0 -14 0 -19 -31 -31 -35 -12 -1 0 -7 -50 0 -56 -1 -5 -1 -1 0 -1 -5 -1 -16 -13 -9
-4 -1 -49 0 -23 -59 0 -1 -9 -2 -4 -1 -6 -24 -55 -5 -4 -34 -7 -3 0 0 0 -27 0 -6 -3 0 0 0 -28 -47 -4 -3 0 -2 0 0 0 0 0 0 0 0
-2 0 -5 0 -1 0 -1 -2 -3 -8 -30 -1 0 -1 -4 -38 0 -14 -44 -51 0 -24 -13 -17 -4 0 0 -2 0 -1 -1 -1 -1 -1 -2 -4 -2 0 0 0 0 0 0 0
-2 0 0 0 0 0 -1 0 0 0 0 0 0 0 0 -1 0 -1 0 -1 0 0 -13 -35 -22 -11 -12 -4 -11 -2 0 -1 -4 -3 -1 -3 -1 0 -2 -1 0 0 -1 0
0 0 0 0 0 0 0 0 0 0 0 0 0 0 0 0 -2 -2 -2 -4 -4 0 -6 0 -22 -2 0 -2 -1 0 -3 -5 -4 -7 0 -4 -17 -3 -1 -3 -21 -30 -5 -1
Wind_Speed
nan nan nan nan nan nan nan nan nan nan nan nan nan 34 nan nan nan nan 23 29 32 35 37 28 28 26 24 24 27 26 23 17 9 7 4 2 2 3 6 15 20 25 29 29
nan nan nan nan nan nan nan nan nan nan nan nan nan nan 32 24 nan nan 37 32 32 39 42 37 38 40 39 29 27 26 25 19 10 5 4 1 7 11 16 18 22 27 30 34
nan nan nan nan nan nan nan nan nan nan nan nan nan nan nan nan 30 nan nan 27 38 37 44 43 45 43 45 38 32 27 27 20 16 12 6 5 9 12 15 22 26 30 32 36
nan nan nan nan nan nan nan nan nan nan nan nan nan nan nan nan nan nan nan nan 35 35 41 47 47 50 39 43 34 30 29 25 23 17 13 17 20 22 27 30 31 31 35 38
nan nan nan nan nan nan nan nan nan 50 49 nan nan nan nan nan nan nan nan nan nan 36 43 40 43 47 46 46 38 36 31 26 25 22 17 20 26 31 33 34 33 25 33 38
nan nan nan nan nan 56 56 51 53 58 57 51 49 nan nan 63 68 nan nan nan nan nan nan 38 31 43 47 41 37 36 28 24 27 22 22 24 29 36 35 37 44 33 38 42
nan nan nan nan 59 46 49 49 60 64 61 59 53 42 39 47 68 70 72 65 nan 55 51 44 39 46 46 43 42 29 30 38 37 34 32 31 33 38 39 36 40 39 44 48
nan nan nan 63 57 55 54 64 66 63 56 53 50 47 44 39 43 53 72 82 79 63 51 46 50 55 45 30 39 42 40 47 46 43 34 32 42 38 36 42 46 53 50 46
nan 55 50 61 49 53 67 70 67 63 64 61 64 61 56 45 44 47 50 54 62 91 81 66 61 62 64 52 49 48 47 48 45 41 38 40 41 43 46 55 44 51 54 55
69 nan 50 63 51 68 67 67 61 56 65 55 55 57 56 54 53 50 55 57 58 58 66 76 76 67 62 60 54 55 52 50 43 47 44 43 43 47 51 52 52 53 56 56
54 69 55 43 56 66 68 74 51 57 54 54 61 59 61 57 55 52 48 59 69 66 66 64 58 72 72 65 64 58 53 51 52 50 46 47 48 47 52 53 52 53 57 57
57 48 35 52 72 39 54 43 61 65 58 53 56 55 54 55 54 58 66 53 70 72 72 66 64 62 71 75 75 61 58 51 48 46 45 49 50 53 64 59 58 63 64 63
nan 61 78 nan nan nan nan nan nan nan 52 55 50 47 51 50 48 58 73 40 40 61 57 64 51 55 58 54 53 57 55 51 50 49 49 53 52 58 60 55 66 67 65 70
nan nan nan nan nan nan nan nan nan nan nan nan nan nan nan nan nan nan nan nan 41 47 52 53 53 53 51 51 54 53 52 54 53 52 55 57 58 59 59 63 65 57 57 60
nan nan nan nan nan nan nan nan nan nan nan nan nan nan nan nan nan nan nan 5 28 37 42 44 47 50 46 46 50 51 51 55 59 58 57 59 58 60 59 57 47 45 nan nan
nan nan nan nan nan nan nan nan nan nan nan nan nan nan nan nan nan nan nan 28 37 36 37 38 41 41 40 43 48 51 59 62 61 58 51 53 56 54 54 51 52 47 nan nan
nan nan nan nan nan nan nan nan nan nan nan nan nan nan nan nan nan nan nan 35 37 38 40 35 41 46 48 49 53 50 54 62 61 50 38 47 61 52 49 52 47 nan nan nan
nan nan nan nan nan nan nan nan nan nan nan nan nan nan nan nan nan nan nan nan 44 40 42 39 46 49 48 43 54 33 41 47 47 42 40 47 51 48 nan 46 48 45 nan nan
nan nan nan nan nan nan nan nan nan nan nan nan nan nan nan nan nan nan nan nan nan nan nan 46 42 50 56 57 57 48 46 49 46 46 nan nan nan nan nan nan nan nan nan nan
nan nan nan nan nan nan nan nan nan nan nan nan nan nan nan nan 27 34 44 49 nan 43 33 36 45 52 53 55 54 49 nan nan nan nan nan nan nan nan nan nan nan nan nan nan
nan nan nan nan nan nan nan nan nan nan nan 17 nan nan 26 29 nan nan nan nan nan nan 53 56 56 59 63 62 59 nan nan nan nan nan nan nan nan nan nan nan nan nan nan nan
nan nan nan nan nan nan nan nan nan nan nan nan nan nan nan 29 nan nan nan nan nan nan nan 17 18 19 nan 24 25 nan nan nan nan nan nan nan nan nan nan nan nan nan nan nan
nan 19 20 nan 22 nan nan nan nan nan 21 21 nan nan nan nan nan nan nan nan nan nan nan nan nan nan nan nan nan nan nan nan nan nan nan nan nan nan nan nan nan nan nan nan
nan nan nan nan nan nan nan nan nan nan nan nan nan nan nan nan nan nan nan nan nan nan nan nan nan nan nan nan nan nan nan nan nan nan nan nan nan nan nan nan nan nan nan nan
nan nan nan nan nan nan nan nan nan nan nan nan nan nan nan nan nan nan nan nan nan nan nan nan nan nan nan nan nan nan nan nan nan nan nan nan nan nan nan nan nan nan nan nan
nan nan nan nan nan nan nan nan nan nan nan nan nan nan nan nan nan nan nan nan nan nan nan nan nan nan nan nan nan nan nan nan nan nan nan nan nan nan nan nan nan nan nan nan
nan nan nan nan nan nan nan nan nan nan nan nan nan nan nan nan nan nan nan nan nan nan nan nan nan nan nan nan nan nan nan nan nan nan nan nan nan nan nan nan nan nan nan nan
Wind_Direction
nan nan nan nan nan nan nan nan nan nan nan nan nan 216 nan nan nan nan 219 246 244 267 276 287 297 302 298 301 307 312 326 342 14 43 89 58 56 29 334 304 311 316 323 328
nan nan nan nan nan nan nan nan nan nan nan nan nan nan 217 246 nan nan 232 236 255 261 272 278 286 293 294 303 313 306 312 340 320 336 339 351 324 312 314 337 331 329 333 333
nan nan nan nan nan nan nan nan nan nan nan nan nan nan nan nan 243 nan nan 234 245 244 262 279 285 293 294 303 308 312 312 313 327 312 304 298 289 303 314 326 317 324 327 326
nan nan nan nan nan nan nan nan nan nan nan nan nan nan nan nan nan nan nan nan 220 256 257 266 279 287 294 291 299 300 297 298 308 314 307 268 286 301 302 307 313 317 318 321
nan nan nan nan nan nan nan nan nan 233 231 nan nan nan nan nan nan nan nan nan nan 219 238 251 271 278 280 285 288 293 285 287 296 308 299 277 285 287 287 289 287 299 311 318
nan nan nan nan nan 213 211 218 212 224 227 229 239 nan nan 217 223 nan nan nan nan nan nan 230 257 267 278 279 282 291 284 281 285 291 285 277 278 278 281 284 294 309 306 310
nan nan nan nan 211 213 216 218 220 229 232 236 241 253 247 224 227 229 233 239 nan 254 252 256 250 262 266 278 286 288 267 255 260 267 274 280 276 278 280 290 289 295 298 300
nan nan nan 211 209 214 216 219 225 229 223 228 233 235 243 243 246 235 234 235 237 242 247 251 256 266 273 274 259 253 259 254 257 267 274 280 278 274 281 290 285 299 296 311
nan 194 209 213 217 206 218 224 224 233 224 239 239 233 229 237 242 246 244 248 248 243 239 236 250 259 258 259 256 254 257 258 262 265 267 269 273 280 280 288 296 300 305 306
194 nan 215 207 207 228 227 229 232 234 239 230 241 235 234 237 241 247 241 244 250 251 244 236 238 244 245 254 249 253 256 258 260 259 260 270 273 277 282 289 295 294 299 302
182 190 211 225 208 221 233 234 238 220 227 231 238 241 245 242 241 241 239 252 250 252 246 239 237 239 245 245 249 248 248 249 249 254 261 261 260 264 275 275 284 292 293 296
181 185 190 201 219 228 233 236 230 236 238 236 243 244 247 253 255 247 242 221 243 248 243 244 240 245 247 245 248 249 246 247 247 252 259 262 264 260 256 268 274 280 289 294
nan 202 209 nan nan nan nan nan nan nan 239 251 253 254 254 259 255 256 249 205 208 233 237 238 234 242 242 246 247 245 245 250 250 255 261 267 260 266 270 262 272 271 275 288
nan nan nan nan nan nan nan nan nan nan nan nan nan nan nan nan nan nan nan nan 176 217 233 235 234 240 242 246 245 242 243 252 254 258 259 259 261 266 264 270 273 275 276 286
nan nan nan nan nan nan nan nan nan nan nan nan nan nan nan nan nan nan nan 235 190 209 215 223 224 231 241 240 243 244 244 248 251 252 257 260 264 266 270 279 285 294 nan nan
nan nan nan nan nan nan nan nan nan nan nan nan nan nan nan nan nan nan nan 230 214 217 216 227 231 235 243 240 237 240 243 242 246 249 246 260 268 276 281 292 291 293 nan nan
nan nan nan nan nan nan nan nan nan nan nan nan nan nan nan nan nan nan nan 222 230 231 225 236 245 233 239 236 234 232 235 244 252 246 267 280 275 282 286 288 292 nan nan nan
nan nan nan nan nan nan nan nan nan nan nan nan nan nan nan nan nan nan nan nan 238 238 233 230 231 241 244 245 243 229 261 274 274 281 273 280 268 269 nan 284 289 290 nan nan
nan nan nan nan nan nan nan nan nan nan nan nan nan nan nan nan nan nan nan nan nan nan nan 232 227 247 253 246 256 262 269 270 269 267 nan nan nan nan nan nan nan nan nan nan
nan nan nan nan nan nan nan nan nan nan nan nan nan nan nan nan 266 262 243 246 nan 258 248 218 235 251 254 253 265 266 nan nan nan nan nan nan nan nan nan nan nan nan nan nan
nan nan nan nan nan nan nan nan nan nan nan 244 nan nan 258 261 nan nan nan nan nan nan 247 247 250 253 256 253 257 nan nan nan nan nan nan nan nan nan nan nan nan nan nan nan
nan nan nan nan nan nan nan nan nan nan nan nan nan nan nan 264 nan nan nan nan nan nan nan 233 241 239 nan 256 266 nan nan nan nan nan nan nan nan nan nan nan nan nan nan nan
nan 193 205 nan 231 nan nan nan nan nan 242 241 nan nan nan nan nan nan nan nan nan nan nan nan nan nan nan nan nan nan nan nan nan nan nan nan nan nan nan nan nan nan nan nan
nan nan nan nan nan nan nan nan nan nan nan nan nan nan nan nan nan nan nan nan nan nan nan nan nan nan nan nan nan nan nan nan nan nan nan nan nan nan nan nan nan nan nan nan
nan nan nan nan nan nan nan nan nan nan nan nan nan nan nan nan nan nan nan nan nan nan nan nan nan nan nan nan nan nan nan nan nan nan nan nan nan nan nan nan nan nan nan nan
nan nan nan nan nan nan nan nan nan nan nan nan nan nan nan nan nan nan nan nan nan nan nan nan nan nan nan nan nan nan nan nan nan nan nan nan nan nan nan nan nan nan nan nan
nan nan nan nan nan nan nan nan nan nan nan nan nan nan nan nan nan nan nan nan nan nan nan nan nan nan nan nan nan nan nan nan nan nan nan nan nan nan nan nan nan nan nan nan